STAZIONE METEO DI BARCELLONA P.G. CENTRO
Dati campionati ogni minuto da Consolle Davis Vantage Pro 2
ed inviati alla rete mediante server Anemos WDS5 wview



Barcellona P.G. Centro more information Barcellona P.G. Centro


Golfo di Patti more information Golfo di Patti


avvertimento per Temporali more information blitzortung!


avvertimento per Pioggia  rain snow radar


altri nostri siti meteo:

Rete NOAA MADIS

Italia Meteo Network

Pomeziameteo

Varazze Meteo



Ci sono vari avvisi meteo   Clicca qui per altre informazioni

Select another period ( hide this area )

Unità Periodo Custom range Directly to
Metrico Inglese Entrambi
Quotidiano Settimanale mensile Annuale
use both date-selectors for a custom range
previous Day
With this date

WeatherUnderground graphs for this period ( click here )



Warning: Division by zero in /web/htdocs/www.barcellonameteo.it/home/weather28/wu/WU-History4.php on line 835
Quotidiano Riepilogo per Lunedi' 25 Giugno 2018
Tempo Temp. ( °C ) Dew pt. ( °C ) Vento ( km/h ) da Raffica ( km/h ) Pressione ( hPa ) Humid.( % ) Rainrate ( cm ) solare ( W/m2 )
Max23,1 17,7 19,3 Sud ( 122/437 ) 24,1 1012,8 81 0,30 0
Media22,0 16,8 6,2 Sud #12/70 12,0 1011,6 73 0,60 0 #0/70
Min20,7 16,3 -   0,0 1010,7 66 -  
Quotidiano Tabular details for Lunedi' 25 Giugno 2018
Tempo Temp. ( °C ) Dew pt. ( °C ) Vento ( km/h ) da Raffica ( km/h ) Pressione ( hPa ) Humid.( % ) Rainrate ( cm ) solare ( W/m2 )
00:05 22,9 16,7 4,8 Sud 19,3 1012,8 68 - -
00:10 22,9 16,7 12,9 Sud 20,9 1012,8 68 - -
00:15 22,9 16,7 19,3 S 20,9 1012,4 68 - -
00:20 23,0 16,5 12,9 Sud 22,5 1012,4 67 - -
00:25 23,0 16,5 6,4 SW 22,5 1012,4 67 - -
00:30 23,1 16,6 4,8 Sud 14,5 1012,4 67 - -
00:35 23,1 16,3 11,3 S 17,7 1012,1 66 - -
00:40 23,0 16,5 9,7 S 20,9 1012,1 67 - -
00:45 22,9 16,4 6,4 Sud 17,7 1012,1 67 - -
00:50 22,8 16,6 19,3 Sud 24,1 1012,1 68 - -
00:55 22,8 16,5 17,7 Sud 24,1 1012,1 68 - -
01:00 22,8 16,5 11,3 Sud 22,5 1012,1 68 - -
01:05 22,8 16,3 14,5 Sud 20,9 1012,1 67 - -
01:10 22,8 16,3 8,0 S 17,7 1012,1 67 - -
01:15 22,8 16,3 12,9 S 19,3 1012,1 67 - -
01:20 22,8 16,3 6,4 Sud 20,9 1011,7 67 - -
01:25 22,8 16,3 9,7 SW 19,3 1011,7 67 - -
01:30 22,8 16,3 11,3 S 17,7 1011,7 67 - -
01:35 22,8 16,3 6,4 S 17,7 1011,7 67 - -
01:40 22,8 16,3 6,4 S 14,5 1011,7 67 - -
01:45 22,9 16,4 6,4 SW 14,5 1011,7 67 - -
01:50 22,9 16,4 6,4 Sud 16,1 1011,7 67 - -
01:55 22,9 16,4 9,7 S 12,9 1011,7 67 - -
02:00 22,8 16,3 4,8 S 16,1 1011,7 67 - -
02:05 22,8 16,6 6,4 SW 12,9 1011,7 68 - -
02:10 22,7 16,5 3,2 SW 12,9 1011,7 68 - -
02:15 22,7 16,4 6,4 SW 9,7 1011,7 68 - -
02:20 22,6 16,6 12,9 S 12,9 1011,7 69 - -
02:25 22,6 16,6 4,8 Sud 12,9 1011,7 69 - -
02:30 22,5 16,5 4,8 S 9,7 1011,7 69 - -
02:35 22,5 16,5 6,4 S 16,1 1011,7 69 - -
02:40 22,6 16,6 14,5 S 16,1 1011,7 69 - -
02:45 22,7 16,4 4,8 S 14,5 1011,4 68 - -
02:50 22,7 16,5 8,0 SW 12,9 1011,4 68 - -
02:55 22,7 16,9 1,6 S 9,7 1011,4 70 0,30 -
03:00 22,7 17,1 8,0 NO 8,0 1011,4 71 0,30 -
03:05 22,6 17,7 6,4 NE 11,3 1011,4 74 0,30 -
03:10 21,7 16,8 6,4 NE 12,9 1011,4 74 0,30 -
03:15 21,3 17,5 4,8 NE 8,0 1011,7 79 0,30 -
03:20 21,1 16,8 12,9 NE 16,1 1011,7 77 0,30 -
03:25 20,7 16,4 6,4 NE 16,1 1011,7 77 0,30 -
03:30 20,7 16,9 3,2 NE 9,7 1011,7 79 0,30 -
03:35 21,0 17,6 1,6 NE 8,0 1011,7 81 0,30 -
03:40 21,1 17,6 6,4 S 8,0 1011,4 81 0,30 -
03:45 20,8 17,0 3,2 SE 11,3 1011,4 79 0,30 -
03:50 20,8 16,9 4,8 SE 8,0 1011,4 79 0,30 -
03:55 20,7 16,9 8,0 SE 9,7 1011,1 79 - -
04:00 20,7 16,9 3,2 SE 11,3 1011,1 79 - -
04:05 20,8 16,9 3,2 SE 4,8 1011,1 79 - -
04:10 20,8 17,0   calma 4,8 1011,1 79 - -
04:15 20,9 16,9 1,6 SE 4,8 1011,1 78 - -
04:20 21,1 17,1 3,2 NE 4,8 1011,1 78 - -
04:25 21,1 17,2   calma 4,8 1011,1 79 - -
04:30 21,1 17,3   calma   1011,1 79 - -
04:35 21,2 17,3   calma   1011,1 79 - -
04:40 21,2 17,4 1,6 NE 3,2 1010,7 79 - -
04:45 21,3 17,7   calma 3,2 1010,7 80 - -
04:50 21,2 17,4 6,4 SE 8,0 1010,7 79 - -
04:55 21,1 17,1   calma 8,0 1010,7 78 - -
05:00 21,1 17,1   calma 3,2 1011,1 78 - -
05:05 21,0 17,0   calma   1011,1 78 - -
05:10 21,0 17,2 1,6 SE 4,8 1011,1 79 - -
05:15 20,9 17,1 6,4 SE 8,0 1011,1 79 - -
05:20 20,9 17,1 3,2 SE 6,4 1011,1 79 - -
05:25 20,9 17,1 3,2 Oriente 6,4 1011,1 79 - -
05:30 20,9 16,9 3,2 Oriente 4,8 1011,1 78 - -
05:35 20,9 16,9 3,2 Oriente 4,8 1011,1 78 - -
05:40 20,9 16,9 3,2 SE 8,0 1011,1 78 - -
05:45 21,0 16,8 1,6 S 4,8 1011,1 77 - -
05:50 21,1 16,9 6,4 SE 8,0 1011,1 77 - -
Quotidiano Riepilogo per Lunedi' 25 Giugno 2018
Tempo Temp. ( °C ) Dew pt. ( °C ) Vento ( km/h ) da Raffica ( km/h ) Pressione ( hPa ) Humid.( % ) Rainrate ( cm ) solare ( W/m2 )
Max23,1 17,7 19,3 Sud ( 122/437 ) 24,1 1012,8 81 0,30 0
Media22,0 16,8 6,2 Sud #12/70 12,0 1011,6 73 0,60 0 #0/70
Min20,7 16,3 -   0,0 1010,7 66 -  
Quotidiano Tabular details for Lunedi' 25 Giugno 2018
Tempo Temp. ( °C ) Dew pt. ( °C ) Vento ( km/h ) da Raffica ( km/h ) Pressione ( hPa ) Humid.( % ) Rainrate ( cm ) solare ( W/m2 )
00:05 22,9 16,7 4,8 Sud 19,3 1012,8 68 - -
00:10 22,9 16,7 12,9 Sud 20,9 1012,8 68 - -
00:15 22,9 16,7 19,3 S 20,9 1012,4 68 - -
00:20 23,0 16,5 12,9 Sud 22,5 1012,4 67 - -
00:25 23,0 16,5 6,4 SW 22,5 1012,4 67 - -
00:30 23,1 16,6 4,8 Sud 14,5 1012,4 67 - -
00:35 23,1 16,3 11,3 S 17,7 1012,1 66 - -
00:40 23,0 16,5 9,7 S 20,9 1012,1 67 - -
00:45 22,9 16,4 6,4 Sud 17,7 1012,1 67 - -
00:50 22,8 16,6 19,3 Sud 24,1 1012,1 68 - -
00:55 22,8 16,5 17,7 Sud 24,1 1012,1 68 - -
01:00 22,8 16,5 11,3 Sud 22,5 1012,1 68 - -
01:05 22,8 16,3 14,5 Sud 20,9 1012,1 67 - -
01:10 22,8 16,3 8,0 S 17,7 1012,1 67 - -
01:15 22,8 16,3 12,9 S 19,3 1012,1 67 - -
01:20 22,8 16,3 6,4 Sud 20,9 1011,7 67 - -
01:25 22,8 16,3 9,7 SW 19,3 1011,7 67 - -
01:30 22,8 16,3 11,3 S 17,7 1011,7 67 - -
01:35 22,8 16,3 6,4 S 17,7 1011,7 67 - -
01:40 22,8 16,3 6,4 S 14,5 1011,7 67 - -
01:45 22,9 16,4 6,4 SW 14,5 1011,7 67 - -
01:50 22,9 16,4 6,4 Sud 16,1 1011,7 67 - -
01:55 22,9 16,4 9,7 S 12,9 1011,7 67 - -
02:00 22,8 16,3 4,8 S 16,1 1011,7 67 - -
02:05 22,8 16,6 6,4 SW 12,9 1011,7 68 - -
02:10 22,7 16,5 3,2 SW 12,9 1011,7 68 - -
02:15 22,7 16,4 6,4 SW 9,7 1011,7 68 - -
02:20 22,6 16,6 12,9 S 12,9 1011,7 69 - -
02:25 22,6 16,6 4,8 Sud 12,9 1011,7 69 - -
02:30 22,5 16,5 4,8 S 9,7 1011,7 69 - -
02:35 22,5 16,5 6,4 S 16,1 1011,7 69 - -
02:40 22,6 16,6 14,5 S 16,1 1011,7 69 - -
02:45 22,7 16,4 4,8 S 14,5 1011,4 68 - -
02:50 22,7 16,5 8,0 SW 12,9 1011,4 68 - -
02:55 22,7 16,9 1,6 S 9,7 1011,4 70 0,30 -
03:00 22,7 17,1 8,0 NO 8,0 1011,4 71 0,30 -
03:05 22,6 17,7 6,4 NE 11,3 1011,4 74 0,30 -
03:10 21,7 16,8 6,4 NE 12,9 1011,4 74 0,30 -
03:15 21,3 17,5 4,8 NE 8,0 1011,7 79 0,30 -
03:20 21,1 16,8 12,9 NE 16,1 1011,7 77 0,30 -
03:25 20,7 16,4 6,4 NE 16,1 1011,7 77 0,30 -
03:30 20,7 16,9 3,2 NE 9,7 1011,7 79 0,30 -
03:35 21,0 17,6 1,6 NE 8,0 1011,7 81 0,30 -
03:40 21,1 17,6 6,4 S 8,0 1011,4 81 0,30 -
03:45 20,8 17,0 3,2 SE 11,3 1011,4 79 0,30 -
03:50 20,8 16,9 4,8 SE 8,0 1011,4 79 0,30 -
03:55 20,7 16,9 8,0 SE 9,7 1011,1 79 - -
04:00 20,7 16,9 3,2 SE 11,3 1011,1 79 - -
04:05 20,8 16,9 3,2 SE 4,8 1011,1 79 - -
04:10 20,8 17,0   calma 4,8 1011,1 79 - -
04:15 20,9 16,9 1,6 SE 4,8 1011,1 78 - -
04:20 21,1 17,1 3,2 NE 4,8 1011,1 78 - -
04:25 21,1 17,2   calma 4,8 1011,1 79 - -
04:30 21,1 17,3   calma   1011,1 79 - -
04:35 21,2 17,3   calma   1011,1 79 - -
04:40 21,2 17,4 1,6 NE 3,2 1010,7 79 - -
04:45 21,3 17,7   calma 3,2 1010,7 80 - -
04:50 21,2 17,4 6,4 SE 8,0 1010,7 79 - -
04:55 21,1 17,1   calma 8,0 1010,7 78 - -
05:00 21,1 17,1   calma 3,2 1011,1 78 - -
05:05 21,0 17,0   calma   1011,1 78 - -
05:10 21,0 17,2 1,6 SE 4,8 1011,1 79 - -
05:15 20,9 17,1 6,4 SE 8,0 1011,1 79 - -
05:20 20,9 17,1 3,2 SE 6,4 1011,1 79 - -
05:25 20,9 17,1 3,2 Oriente 6,4 1011,1 79 - -
05:30 20,9 16,9 3,2 Oriente 4,8 1011,1 78 - -
05:35 20,9 16,9 3,2 Oriente 4,8 1011,1 78 - -
05:40 20,9 16,9 3,2 SE 8,0 1011,1 78 - -
05:45 21,0 16,8 1,6 S 4,8 1011,1 77 - -
05:50 21,1 16,9 6,4 SE 8,0 1011,1 77 - -

Download your copy of this data-set  here

Our weather-data as stored at Weather Underground. Script sviluppato da Jim McMurry. Adattato per il modello da Leuven-Template.eu

Potete trovare le nostre info meteo anche a:

European Weather Network

Weather Underground

AWEKAS

Citizen Weather Observer Program (CWOP)

HAMweather, WeatherForYou, PWS Weather

Strumentazione usata:

Stazione meteo
Davis VP2

Programma gestore dati meteo
WVIEW

Server per i dati meteo
WDS5 Ecoblack

Davis VP2

WVIEW

WDS5 Ecoblack